FW5173 Weather Reports


Display with metric or nautical units.
time (UTC)temp
F
wind
direction
speed
MPH
gust
MPH
rain 1hr
in
rain 24hr
in
rain mn
in
humidity
%
barometer
mb
20260508200107 69 245 2.0 8.0 0.00 0.00 0.00 51 1012.3
20260508194600 69 56 1.0 7.0 0.00 0.00 0.00 51 1012.7
20260508193101 69 43 1.0 4.0 0.00 0.00 0.00 50 1013.0
20260508191551 68 26 0.0 8.0 0.00 0.00 0.00 52 1013.2
20260508190056 68 231 1.0 6.0 0.00 0.00 0.00 52 1013.4
20260508184601 68 140 0.0 4.0 0.00 0.00 0.00 51 1013.5
20260508183104 68 129 2.0 7.0 0.00 0.00 0.00 48 1013.6
20260508181551 68 50 2.0 6.0 0.00 0.00 0.00 50 1013.6
20260508180051 67 84 1.0 11.0 0.00 0.00 0.00 48 1014.2
20260508174602 68 177 2.0 10.0 0.00 0.00 0.00 48 1014.2
20260508173052 67 123 4.0 11.0 0.00 0.00 0.00 52 1014.4
20260508171556 67 268 2.0 7.0 0.00 0.00 0.00 51 1014.6
20260508170050 69 281 1.0 6.0 0.00 0.00 0.00 46 1014.9
20260508164549 67 105 0.0 6.0 0.00 0.00 0.00 45 1015.2
20260508163108 67 103 1.0 7.0 0.00 0.00 0.00 48 1015.3
20260508161540 66 243 1.0 8.0 0.00 0.00 0.00 47 1015.4
20260508160040 64 68 0.0 6.0 0.00 0.00 0.00 52 1015.7
20260508154545 66 118 3.0 6.0 0.00 0.00 0.00 49 1016.0
20260508153042 64 161 0.0 5.0 0.00 0.00 0.00 51 1016.0
20260508151542 64 245 2.0 7.0 0.00 0.00 0.00 54 1016.1
20260508150038 63 226 3.0 6.0 0.00 0.00 0.00 56 1016.1
20260508144539 62 290 1.0 7.0 0.00 0.00 0.00 59 1016.3
20260508143029 62 25 1.0 8.0 0.00 0.00 0.00 59 1016.4
20260508141529 61 252 0.0 6.0 0.00 0.00 0.00 60 1016.4
20260508140030 60 39 2.0 4.0 0.00 0.00 0.00 55 1016.4
20260508134526 60 76 1.0 6.0 0.00 0.00 0.00 56 1016.5
20260508133022 59 296 3.0 6.0 0.00 0.00 0.00 60 1016.5
20260508131517 57 336 1.0 6.0 0.00 0.00 0.00 68 1016.5
20260508130015 56 300 1.0 5.0 0.00 0.00 0.00 69 1016.5
20260508124511 54 298 1.0 5.0 0.00 0.00 0.00 75 1016.3
20260508123010 53 302 0.0 5.0 0.00 0.00 0.00 78 1016.2
20260508121506 50 260 0.0 2.0 0.00 0.09 0.00 87 1016.2
20260508120003 49 274 0.0 0.0 0.00 0.09 0.00 92 1016.0
20260508114600 47 289 0.0 3.0 0.00 0.09 0.00 92 1015.8
20260508114500 47 332 0.0 3.0 0.00 0.09 0.00 92 1015.7
20260508113100 45 303 0.0 1.0 0.00 0.09 0.00 95 1015.6
20260508111557 44 271 0.0 0.0 0.00 0.16 0.00 95 1015.3
20260508110113 43 271 0.0 3.0 0.00 0.16 0.00 95 1014.9
20260508104555 44 295 0.0 3.0 0.00 0.16 0.00 95 1014.8
20260508103051 44 309 1.0 3.0 0.00 0.16 0.00 94 1014.5
20260508101553 44 299 1.0 4.0 0.00 0.16 0.00 95 1014.1
20260508100044 45 288 1.0 3.0 0.00 0.16 0.00 94 1014.0
20260508094552 45 260 0.0 4.0 0.00 0.16 0.00 93 1013.7
20260508093053 46 288 0.0 2.0 0.00 0.16 0.00 90 1013.7
20260508091541 47 343 0.0 2.0 0.00 0.16 0.00 91 1013.6
20260508090053 46 290 0.0 4.0 0.00 0.16 0.00 93 1013.6
20260508084535 46 295 1.0 3.0 0.00 0.16 0.00 92 1013.5
20260508083037 48 342 0.0 3.0 0.00 0.16 0.00 88 1013.3
20260508081533 50 319 0.0 3.0 0.00 0.16 0.00 86 1013.3
20260508080037 49 353 0.0 2.0 0.00 0.16 0.00 89 1013.2
20260508074535 48 1 0.0 3.0 0.00 0.16 0.00 90 1013.0
20260508073027 47 304 0.0 1.0 0.00 0.16 0.00 93 1012.8
20260508071527 46 293 0.0 0.0 0.00 0.16 0.16 95 1012.7
20260508070022 46 291 0.0 0.0 0.00 0.16 0.16 93 1012.5
20260508064521 47 287 0.0 1.0 0.00 0.16 0.16 93 1012.6
20260508063021 47 295 0.0 1.0 0.00 0.16 0.16 94 1012.7
20260508061520 47 281 0.0 2.0 0.00 0.17 0.16 93 1012.4
20260508060017 47 302 0.0 1.0 0.00 0.17 0.16 92 1012.4
20260508054516 48 310 0.0 4.0 0.00 0.17 0.16 91 1012.4
20260508053013 49 271 0.0 1.0 0.00 0.17 0.16 91 1012.4
20260508051510 49 298 0.0 1.0 0.00 0.22 0.16 89 1012.2
20260508050007 50 252 0.0 1.0 0.00 0.22 0.16 88 1012.1
20260508044507 50 231 0.0 1.0 0.00 0.22 0.16 88 1011.9
20260508043004 51 240 0.0 0.0 0.00 0.22 0.16 88 1011.8
20260508041502 51 160 0.0 0.0 0.00 0.24 0.16 86 1011.6
20260508034604 53 52 0.0 1.0 0.00 0.24 0.16 82 1011.7
20260508033058 53 234 0.0 2.0 0.00 0.24 0.16 83 1011.7
20260508031602 53 117 0.0 0.0 0.00 0.25 0.16 83 1011.8
20260508030110 54 73 2.0 7.0 0.00 0.25 0.16 79 1011.6
20260508024549 55 224 0.0 4.0 0.00 0.25 0.16 77 1011.5
20260508023049 56 102 0.0 6.0 0.00 0.25 0.16 75 1011.2
20260508021546 56 257 2.0 6.0 0.00 0.26 0.16 74 1011.0
20260508020042 57 25 1.0 8.0 0.00 0.26 0.16 72 1010.9
20260508014540 57 87 5.0 13.0 0.00 0.26 0.16 72 1010.3
20260508013037 57 277 6.0 18.0 0.00 0.26 0.16 71 1010.2
20260508011535 57 288 4.0 10.0 0.00 0.32 0.16 72 1009.8
20260508010040 57 226 0.0 6.0 0.00 0.32 0.16 72 1009.5
20260508004531 58 319 5.0 13.0 0.00 0.32 0.16 70 1009.6
20260508003029 58 53 2.0 13.0 0.00 0.32 0.16 71 1009.4
20260508001534 58 42 2.0 14.0 0.00 0.43 0.16 71 1009.0
20260508000028 58 289 5.0 16.0 0.00 0.43 0.16 70 1008.9
20260507234528 59 351 5.0 15.0 0.00 0.43 0.16 69 1009.1
20260507233024 60 323 13.0 25.0 0.00 0.43 0.16 68 1009.2
20260507231522 60 333 11.0 25.0 0.00 0.44 0.16 68 1009.0
20260507230020 60 319 9.0 25.0 0.00 0.44 0.16 70 1008.9
20260507224523 61 276 11.0 24.0 0.00 0.44 0.16 70 1008.7
20260507223021 61 347 12.0 27.0 0.00 0.44 0.16 69 1008.4
20260507221524 62 310 13.0 21.0 0.00 0.44 0.16 70 1008.0
20260507220020 62 297 11.0 24.0 0.00 0.44 0.16 70 1007.6
20260507214513 64 315 10.0 25.0 0.00 0.44 0.16 69 1007.4
20260507213017 66 281 9.0 20.0 0.00 0.44 0.16 68 1007.1
20260507211506 67 301 12.0 20.0 0.00 0.44 0.16 68 1006.7
20260507210022 67 10 8.0 19.0 0.00 0.44 0.16 68 1006.5
20260507204505 67 274 7.0 18.0 0.00 0.44 0.16 68 1006.4
20260507203010 67 30 8.0 20.0 0.00 0.44 0.16 68 1006.2
20260507201513 68 353 10.0 20.0 0.00 0.44 0.16 68 1006.4